Tracking 27086 objects as of 23-Mar-2023
HD Live streaming from Space Station
objects crossing your sky now

SL-16 DEB

Track SL-16 DEB now!
10-day predictions


NORAD ID: 39867
Int'l Code: 1992-093LV
Perigee: 763.8 km
Apogee: 1,009.5 km
Inclination: 71.0 °
Period: 102.6 minutes
Semi major axis: 7257 km
RCS: 0.0087 m2 (small)
Launch date: December 25, 1992
Source: Commonwealth of Independent States (former USSR) (CIS)
Launch site: TYURATAM MISSILE AND SPACE COMPLEX (TTMTR)

Note: This is SATELLITE DEBRIS
Your satellite tracking list
Your tracking list is empty




NASA's NSSDC Master Catalog

Two Line Element Set (TLE):
1 39867U 92093LV  23078.75178913  .00005642  00000-0  31567-2 0  9998
2 39867  70.9756 113.9930 0169301 335.1360  24.1665 14.04130370429637
Source of the keplerian elements: AFSPC